Theta_e
301 301 299 298 296 294 295 295 295 296 297 298 298 297 293 291 290 289 290 291 291 292 291 292 293 295 295 295 297 296 296 297 298 298 300 304 308 308 308 306 305 305 305
299 299 297 296 295 294 294 293 294 294 296 297 298 297 293 291 290 289 288 290 290 291 291 290 290 291 292 291 293 294 293 295 296 297 297 295 302 302 304 304 302 301 302
298 298 297 295 294 293 292 293 293 292 293 295 298 296 295 292 290 287 287 288 289 290 290 289 289 289 289 289 289 290 292 291 293 296 296 293 293 296 306 300 299 298 297
299 299 297 294 293 293 292 292 292 291 291 292 293 294 293 290 287 286 287 287 288 288 290 290 289 288 288 288 289 290 289 291 290 292 295 297 297 295 293 300 296 296 294
298 298 297 297 295 294 291 290 290 290 289 288 289 288 286 286 286 286 285 286 286 287 288 288 287 287 287 287 287 287 287 288 289 289 290 291 293 294 293 292 296 294 294
297 298 298 297 295 293 290 288 289 288 288 287 287 287 285 285 284 284 283 284 285 285 286 287 286 286 286 286 286 286 286 286 286 287 288 288 289 288 289 290 290 290 292
296 297 296 295 293 290 289 288 288 286 287 286 286 286 285 285 284 283 282 283 283 283 283 285 284 284 285 285 285 285 285 285 285 285 285 286 288 289 288 288 288 288 293
295 295 295 294 292 291 290 289 288 286 286 286 285 285 286 285 284 284 282 283 284 282 283 283 283 284 284 285 284 283 283 282 284 283 284 285 286 287 287 286 286 284 285
294 294 295 294 293 291 290 289 287 287 286 286 285 284 284 284 284 283 283 283 284 285 282 282 282 282 283 283 283 282 281 281 282 282 282 283 284 285 286 286 288 285 281
291 288 288 287 288 291 290 289 288 287 286 285 285 285 284 284 284 285 284 283 283 283 283 282 282 282 282 282 282 282 282 281 281 281 281 281 282 283 283 284 284 285 284
285 285 285 285 285 285 286 286 286 285 285 285 284 284 284 285 285 285 285 284 284 284 283 283 282 282 282 282 281 281 282 281 281 280 280 281 281 281 281 282 282 281 281
282 282 283 283 283 283 284 283 283 283 283 284 284 284 285 285 284 285 284 284 284 284 284 284 283 282 282 281 280 280 281 282 281 280 279 279 282 279 281 280 280 280 280
284 282 282 281 281 282 283 283 284 285 285 285 285 285 285 284 283 284 284 284 284 283 283 282 282 282 282 281 280 280 280 282 282 281 279 279 278 278 279 279 279 280 282
283 282 281 280 280 281 282 284 284 285 286 286 285 284 283 283 284 284 284 283 283 282 282 281 281 281 282 281 281 281 280 281 282 281 279 278 278 277 279 280 280 282 280
282 281 280 280 280 280 280 282 283 283 284 283 283 283 284 284 284 283 282 282 281 281 281 281 281 280 281 281 279 279 278 278 279 282 282 280 281 283 282 281 280 281 280
280 280 280 280 278 277 279 280 280 281 282 282 282 284 283 283 283 281 281 281 280 280 280 280 280 279 280 282 284 284 279 279 279 279 281 280 283 282 284 285 285 284 280
278 278 277 278 278 278 280 278 279 281 281 281 281 282 282 281 281 281 280 280 278 279 278 278 277 277 277 282 283 284 281 278 277 277 280 281 280 281 278 282 283 284 286
277 277 276 277 277 278 277 277 278 279 280 281 280 281 281 280 280 280 279 279 278 278 277 277 277 276 277 282 283 284 280 276 276 276 277 277 277 278 278 278 278 279 280
276 275 274 275 276 274 273 273 274 275 276 276 277 279 280 279 278 277 277 277 276 275 275 276 275 274 274 281 282 281 277 276 275 276 277 277 276 280 282 279 278 277 280
274 274 274 274 271 271 270 271 272 272 273 275 276 277 276 276 275 275 275 275 275 276 276 276 274 276 274 279 281 280 277 274 276 276 277 281 279 282 282 279 277 276 278
275 275 273 270 270 272 272 271 271 271 274 275 275 275 275 275 275 274 274 273 273 274 271 272 272 272 273 273 280 281 277 276 276 276 277 278 282 283 283 283 278 278 280
272 272 270 270 271 272 271 272 272 274 274 274 274 273 272 273 275 274 273 272 271 271 269 270 271 273 274 278 279 280 281 280 277 276 277 278 282 282 283 282 283 283 283
271 272 270 270 270 271 271 269 270 271 271 270 270 270 271 272 273 272 271 271 269 270 270 271 271 272 274 275 278 280 281 282 279 279 279 281 282 282 282 282 283 283 279
269 268 267 267 268 269 271 269 270 270 269 268 268 269 268 270 271 272 272 271 268 268 270 270 270 271 273 274 275 275 275 278 278 279 280 281 282 283 280 280 280 277 276
269 268 268 268 268 268 268 268 270 269 268 268 268 268 269 268 268 270 269 270 271 272 270 270 271 271 270 274 277 276 275 275 277 276 275 275 277 278 278 276 276 276 275
268 268 268 267 267 267 267 268 268 269 266 266 268 267 268 267 268 267 268 273 275 277 278 278 277 277 278 279 279 279 280 280 281 277 273 273 274 275 274 273 273 273 275
Wind_Speed
12 11 11 9 8 7 7 6 6 3 3 2 2 3 3 3 3 4 6 6 6 6 6 4 5 5 7 6 7 4 5 7 9 4 5 4 9 10 9 8 8 11 11
8 10 10 9 9 8 7 6 6 5 3 2 2 2 3 2 3 3 5 5 6 6 6 5 5 6 5 7 7 6 4 4 7 4 3 4 2 7 8 7 8 10 8
12 11 12 10 8 8 8 7 6 6 3 4 3 3 4 3 2 3 3 4 5 5 5 6 5 5 4 4 4 5 5 3 4 7 3 3 3 5 3 8 7 8 7
8 11 12 10 9 8 7 7 6 5 3 3 2 3 2 3 1 3 2 3 5 6 6 6 5 5 4 5 5 5 4 3 4 3 5 4 3 2 4 2 5 7 8
11 12 12 11 7 8 7 6 6 5 3 3 3 3 3 3 3 3 5 4 4 6 6 6 6 5 4 5 5 5 6 4 3 2 2 2 2 3 2 4 3 4 5
8 8 7 8 7 7 7 7 6 4 4 3 3 5 7 5 4 3 4 3 3 3 5 5 5 4 5 5 4 4 5 4 4 3 3 1 1 1 2 2 3 5 3
7 8 9 8 7 8 7 6 7 5 4 4 3 4 5 6 6 4 3 3 1 1 3 3 4 3 3 4 4 4 4 3 2 3 2 3 0 2 1 1 2 3 1
6 7 8 8 9 9 8 7 7 5 5 4 3 2 4 3 3 3 3 4 3 2 2 3 3 4 5 4 4 2 2 4 2 3 3 2 2 1 1 3 1 3 4
6 7 6 6 7 8 8 9 8 6 6 6 4 3 2 3 3 3 3 2 3 3 2 2 2 3 4 5 4 3 2 3 2 1 2 1 1 2 1 1 3 3 2
10 12 12 11 9 4 4 5 6 6 5 6 5 4 4 4 3 3 3 3 2 2 1 2 3 3 4 4 4 3 2 2 2 2 3 2 2 3 2 0 1 2 3
11 11 11 11 11 11 8 6 5 6 6 6 5 5 4 3 3 2 3 3 2 2 2 1 1 3 3 4 3 4 2 3 3 3 3 4 3 2 2 1 0 1 2
14 13 12 12 12 10 10 8 8 6 4 4 5 4 4 1 4 3 3 2 1 1 1 2 2 3 3 2 3 4 3 2 1 1 2 2 3 3 3 1 2 1 1
14 11 11 10 9 8 8 7 7 6 5 6 5 4 4 4 4 3 3 3 3 1 2 3 3 2 2 3 3 4 5 4 4 3 2 3 2 2 1 1 2 2 1
11 7 7 7 6 6 6 6 7 6 6 3 2 5 5 0 2 3 4 3 2 3 4 4 4 3 3 3 4 5 5 4 2 4 4 4 4 4 2 2 2 2 2
10 9 7 6 6 7 7 6 5 5 4 4 4 4 6 3 4 3 2 1 3 4 5 5 4 4 3 4 4 4 3 4 4 3 5 5 7 10 8 3 4 2 2
9 9 7 7 7 6 5 6 6 5 5 5 5 5 6 3 4 4 4 4 5 4 5 5 4 4 4 10 13 9 5 5 5 5 5 5 11 9 11 12 13 9 4
9 7 6 5 4 5 7 6 7 5 5 5 5 6 4 4 4 4 4 4 5 5 5 5 5 5 5 12 14 16 4 5 5 5 5 5 6 8 5 10 11 11 15
6 6 5 5 5 5 5 6 6 7 6 5 5 6 5 5 4 4 5 5 4 5 5 5 5 5 5 13 16 17 5 4 5 5 6 6 6 6 5 5 5 5 5
5 3 3 4 4 5 5 4 5 6 6 6 5 5 4 5 5 6 5 5 5 5 5 5 6 6 6 14 16 15 4 5 6 6 6 7 7 10 15 8 7 5 5
3 3 4 4 3 5 4 3 5 5 5 6 6 5 5 6 6 6 6 4 4 6 5 7 6 10 7 14 17 15 3 5 6 6 8 16 11 16 15 8 6 6 5
6 6 5 4 5 6 5 5 4 6 6 5 5 6 6 7 7 6 5 5 6 6 5 7 6 7 8 9 19 20 9 6 6 6 7 6 17 17 18 17 7 7 5
5 6 5 5 6 7 5 7 6 7 6 7 7 7 6 7 8 9 7 7 6 6 6 7 8 7 8 16 18 20 20 17 9 8 7 6 16 17 17 11 12 16 14
6 6 5 5 6 6 6 6 8 8 6 7 8 7 8 9 10 10 10 8 5 5 7 7 8 8 7 7 17 19 20 20 13 8 12 17 18 19 12 10 9 10 4
6 3 5 6 6 5 8 7 10 9 7 8 8 7 6 10 7 6 7 8 4 5 7 8 8 7 7 7 6 7 7 14 11 8 6 11 15 14 10 8 6 4 3
6 4 6 8 8 7 7 8 11 9 8 8 7 7 7 7 8 7 6 7 8 10 8 9 9 9 9 9 14 12 8 7 11 10 4 4 5 3 6 5 5 4 3
7 8 9 10 11 10 10 10 10 9 7 8 9 8 8 6 7 7 8 16 21 24 24 24 19 9 20 25 22 21 20 21 22 9 5 6 6 6 5 5 5 4 7
Wind_Direction
195 171 167 157 152 160 162 166 154 167 131 151 121 115 103 89 60 54 38 37 25 26 27 20 26 25 34 23 29 7 14 19 1 336 343 19 57 47 47 55 47 44 38
165 167 162 164 166 169 179 175 171 161 140 123 140 130 139 114 114 85 53 46 31 28 41 34 30 30 38 29 24 21 6 4 16 11 295 357 338 39 48 39 52 45 50
173 172 174 178 165 177 181 183 175 165 154 144 123 99 86 80 83 56 65 40 48 38 40 34 38 41 44 38 35 24 29 35 360 44 20 10 338 334 59 54 49 47 40
175 175 174 178 179 184 175 173 169 160 159 149 136 161 166 136 160 130 117 73 59 41 39 38 38 38 29 36 15 32 32 35 40 14 11 6 335 338 315 83 58 56 49
173 179 183 180 177 158 171 166 154 147 130 110 117 121 112 124 144 112 113 105 63 47 32 40 36 30 28 29 30 22 24 31 42 40 20 9 325 23 310 310 28 80 50
179 172 167 152 160 146 144 148 145 138 126 122 110 140 149 148 129 124 119 106 90 54 34 28 30 27 31 26 19 18 35 25 36 33 25 96 69 7 337 316 355 337 85
173 164 163 161 141 147 146 146 147 148 150 133 106 136 139 135 138 139 139 133 116 82 30 34 18 6 9 21 22 22 30 32 43 21 7 3 346 190 157 297 317 310 338
188 176 163 152 148 154 155 154 159 159 165 153 142 114 133 138 149 148 137 141 145 168 77 40 23 2 1 10 15 12 3 27 30 38 20 350 350 17 169 172 241 287 287
173 160 139 142 152 157 167 167 162 167 170 165 156 168 147 137 145 134 128 119 133 140 82 60 30 356 348 349 350 350 327 26 357 6 41 355 343 12 10 345 236 235 270
65 67 66 60 48 79 130 140 146 154 158 155 153 154 134 111 109 99 112 115 125 105 50 328 328 335 337 350 8 353 325 63 4 42 32 27 351 10 346 90 22 323 228
68 68 61 53 48 43 46 70 102 128 143 144 146 141 139 132 140 176 180 180 191 231 243 245 342 331 325 329 340 333 33 34 22 360 27 13 351 4 347 302 153 126 158
55 47 47 42 38 35 32 34 37 63 98 116 115 112 95 217 216 214 187 153 188 336 342 311 281 294 309 332 328 327 292 235 245 353 349 349 360 347 348 351 338 247 213
51 40 40 39 34 29 24 18 18 23 33 42 49 15 279 232 229 218 169 260 241 246 304 305 280 274 297 308 309 292 285 256 245 221 226 256 294 310 329 321 311 304 310
64 58 46 40 33 20 23 21 16 11 354 347 270 248 252 114 339 228 212 221 242 273 277 273 255 242 249 262 279 280 293 279 270 296 223 224 246 240 224 279 294 297 299
57 52 43 28 36 27 357 5 6 352 348 346 337 314 308 217 257 286 261 287 289 273 262 260 269 273 272 254 246 243 249 284 283 256 267 242 233 246 235 232 239 238 256
50 42 37 30 21 15 4 354 350 339 335 331 318 305 289 306 245 238 250 264 262 261 266 259 252 249 249 271 274 256 218 251 263 268 244 258 262 259 258 258 247 224 210
28 30 21 13 4 9 3 347 333 313 324 311 297 286 290 281 288 291 284 272 267 267 266 265 257 259 256 268 272 270 221 225 244 258 254 257 243 244 235 252 269 277 255
28 18 5 351 355 360 358 332 326 322 319 314 316 320 313 301 294 290 281 278 269 264 261 261 262 259 260 268 275 273 246 222 246 256 260 237 235 235 226 229 242 256 280
12 346 323 319 337 334 308 316 325 331 327 310 321 322 314 304 294 288 283 278 281 279 272 266 272 264 260 272 275 275 236 228 244 260 259 239 223 232 253 233 215 233 263
331 326 312 315 317 301 286 324 313 313 307 308 304 296 296 290 283 277 277 270 263 269 271 276 260 261 259 267 274 275 252 233 242 253 261 267 222 232 246 232 196 216 227
338 350 332 307 309 305 319 301 297 295 287 297 306 306 302 298 275 266 262 261 263 272 272 277 272 259 256 260 272 272 264 248 243 244 255 245 247 255 242 231 191 210 207
329 325 326 316 302 312 320 304 298 294 298 300 299 293 292 295 297 289 275 263 259 265 266 273 276 266 256 266 271 272 269 256 235 233 239 244 251 245 246 231 232 233 231
318 312 295 298 300 304 313 327 318 311 309 306 301 297 298 297 296 292 288 281 256 255 268 270 274 274 266 256 269 274 273 260 255 225 238 241 245 247 242 233 238 239 120
306 278 305 302 295 314 325 303 306 311 303 297 291 289 281 292 291 293 291 287 273 263 267 269 269 270 271 264 256 255 270 283 283 297 266 254 242 236 186 199 189 157 131
305 311 311 309 316 313 303 300 310 303 296 297 290 285 288 283 285 280 275 278 269 261 259 257 256 255 253 248 254 251 238 241 249 253 219 244 254 190 178 172 170 166 179
319 315 312 312 311 308 305 305 304 300 305 308 303 295 298 292 287 287 289 285 288 290 288 286 281 262 256 257 254 255 260 259 240 233 207 216 221 204 182 184 180 174 188